Wind_Speed
17 15 14 13 12 12 14 16 15 14 13 13 12 12 12 12 12 13 13 14 15 15 15 15 15 15 15 16 16 17 18 18 19 19 20 20 20 19 20 20 21 21 20 20 21 21 21 20 20 20 21 21 21 21 21 21 21 22 24 25 27 27 27
19 17 16 15 13 14 15 17 16 14 13 13 12 12 12 12 12 12 13 14 14 14 14 14 14 14 15 15 15 16 17 18 19 20 20 21 21 21 21 21 21 22 20 20 21 22 21 20 20 20 21 22 22 22 21 20 20 20 21 21 22 23 25
20 18 17 16 14 14 16 17 16 14 13 12 12 11 11 11 12 12 13 13 13 13 13 13 13 13 14 14 15 16 17 17 18 19 20 22 22 22 22 22 21 21 21 20 21 22 21 20 20 21 21 22 23 23 23 22 21 20 19 19 19 20 21
20 19 18 17 14 13 15 16 16 14 12 12 11 11 10 11 11 11 11 11 11 12 12 12 12 12 12 13 14 14 15 16 17 18 19 20 21 21 21 21 20 20 20 20 20 21 20 19 19 20 21 22 22 23 24 23 23 22 21 20 20 20 20
19 19 18 17 14 12 13 15 16 14 12 11 10 9 9 9 10 10 10 10 10 10 10 10 10 10 10 11 12 12 13 14 15 16 17 18 19 19 19 19 18 18 18 19 19 19 19 18 19 19 20 20 21 22 23 24 23 23 24 23 22 22 21
17 19 17 16 14 11 12 13 15 14 12 10 9 8 8 9 9 9 9 9 9 9 9 8 8 8 9 9 10 11 12 13 14 15 15 16 17 17 17 16 16 16 16 16 16 16 17 17 18 18 18 19 20 20 21 22 22 23 23 23 23 22 22
16 18 16 14 13 11 11 13 14 14 11 8 7 7 8 9 9 9 9 9 9 9 8 8 7 7 7 8 9 9 10 11 12 13 14 14 14 15 14 14 13 13 12 11 11 12 12 13 15 15 16 16 17 18 18 19 20 20 21 21 21 21 22
16 18 16 14 13 13 12 13 14 13 11 7 6 7 8 8 9 9 9 9 9 8 8 8 7 7 7 8 8 9 9 10 11 12 13 13 13 13 12 12 11 10 10 9 8 8 9 9 10 11 12 13 13 14 15 16 16 17 17 17 18 18 19
18 18 16 15 14 15 14 13 13 13 11 8 6 7 7 8 9 9 9 9 8 8 8 8 8 8 8 8 8 9 9 10 11 12 12 13 13 13 12 11 11 10 9 8 8 7 7 7 7 8 8 9 10 11 12 12 13 13 14 15 15 16 17
19 17 15 15 15 15 15 14 13 12 12 10 9 8 8 8 9 10 10 10 10 10 10 10 10 9 9 9 9 9 10 10 11 12 12 13 13 13 13 12 11 11 10 9 9 8 8 7 7 7 7 8 8 9 9 10 10 10 12 13 13 13 14
20 19 18 16 16 16 17 15 14 13 13 12 11 10 9 9 10 10 11 11 12 12 12 12 12 12 12 11 11 11 11 11 11 12 13 14 14 13 13 12 12 11 11 10 10 10 9 9 9 9 9 9 9 9 9 9 8 8 9 10 10 10 12
19 19 18 17 18 19 19 18 17 15 14 13 12 11 9 9 10 11 12 13 13 14 13 13 13 14 14 14 13 12 12 12 12 12 13 14 15 15 14 14 13 12 12 11 11 11 11 10 10 10 10 10 10 10 10 10 10 9 10 10 10 9 10
18 18 18 18 19 19 19 18 18 17 15 14 13 12 11 10 10 11 13 14 14 14 13 12 12 13 14 15 15 15 14 13 12 12 13 14 15 16 16 15 15 14 13 12 11 11 12 11 11 11 12 12 12 12 12 12 12 12 12 12 12 12 12
20 21 20 20 19 19 20 19 18 17 17 16 15 14 14 13 12 12 13 14 15 14 13 12 12 12 13 14 16 17 16 15 14 14 14 14 15 15 16 16 16 15 14 13 12 12 12 12 13 13 13 13 14 14 14 15 15 15 14 15 15 15 15
24 24 22 21 21 21 21 21 20 18 18 17 17 18 18 16 15 14 14 14 14 14 14 14 14 14 14 15 16 17 17 17 16 16 16 16 16 16 16 16 16 15 15 14 14 13 12 12 13 13 14 14 15 15 16 16 17 18 18 17 18 18 19
26 26 25 24 24 23 22 22 21 19 19 18 18 20 20 20 18 17 16 16 16 16 16 17 17 18 17 17 17 17 18 18 19 19 19 19 18 18 17 17 16 16 16 15 15 14 13 13 13 13 14 14 15 15 16 17 18 19 20 20 20 20 21
26 26 26 26 25 24 22 22 22 21 20 20 21 21 22 22 21 20 20 20 21 21 21 21 21 21 21 20 20 19 19 20 21 21 21 21 22 21 20 20 20 19 18 17 17 16 16 15 15 15 15 15 16 17 17 18 19 19 21 22 23 23 23
26 26 26 26 27 26 25 24 25 25 24 24 25 25 24 24 24 23 23 24 25 26 26 25 24 24 26 26 25 24 23 23 23 23 24 24 24 24 24 23 23 23 22 21 20 19 18 18 18 17 17 17 18 19 19 20 21 21 22 23 24 25 25
27 27 25 26 28 30 29 27 25 26 27 27 27 27 27 27 27 27 27 27 28 29 29 28 27 28 30 31 32 32 31 28 26 25 25 25 25 26 27 26 25 24 24 23 22 21 21 21 20 20 20 20 21 22 22 22 23 23 24 25 26 27 27
29 28 26 25 26 27 27 26 25 26 27 28 28 28 27 27 28 28 29 29 29 30 31 32 32 32 32 31 31 30 28 26 25 24 25 26 26 28 29 29 28 27 27 26 26 25 25 24 23 22 22 23 24 24 24 24 24 24 25 26 27 28 29
25 27 27 26 26 27 28 29 29 29 27 27 28 28 27 26 26 27 29 30 30 31 33 35 35 34 33 31 28 27 26 26 26 25 25 24 25 28 30 30 31 31 31 31 31 30 29 28 27 26 26 27 26 25 25 26 26 26 27 27 28 30 31
26 27 30 29 26 25 27 29 31 31 28 25 26 27 29 29 30 31 32 32 33 34 36 37 38 37 35 34 32 32 31 30 29 29 28 27 27 28 30 32 33 33 34 34 35 34 34 32 32 31 31 30 29 28 29 29 30 30 31 31 32 33 33
31 28 31 33 30 29 29 29 30 31 31 29 30 31 32 33 35 36 36 37 37 38 39 39 40 39 38 37 36 35 34 33 32 33 33 33 33 32 32 33 34 35 36 37 38 38 37 36 36 35 35 34 33 33 34 34 35 35 36 36 36 37 36
33 33 35 36 36 37 37 35 35 35 37 38 39 38 38 38 39 40 40 38 37 37 39 40 41 41 40 39 39 38 37 36 36 36 36 36 37 37 37 37 37 37 38 39 40 40 40 40 39 39 38 37 37 39 40 41 41 40 40 39 39 39 39
35 37 39 39 40 41 40 40 40 40 41 43 44 43 43 42 42 42 41 41 39 40 41 43 44 45 44 43 43 42 40 39 38 38 38 38 39 39 39 38 38 38 38 41 42 41 41 42 42 42 43 43 45 46 46 46 45 43 42 41 40 40 41
38 39 39 39 40 41 41 41 42 43 44 45 45 45 44 44 44 44 44 45 45 46 46 46 47 48 48 46 46 45 43 41 41 41 41 41 41 41 41 40 39 38 38 41 43 40 40 43 44 46 47 48 49 48 48 47 46 45 43 42 42 42 43
40 39 38 37 38 39 40 41 43 44 45 46 45 45 45 45 44 44 45 47 48 49 49 49 49 49 48 46 44 44 45 44 44 45 45 44 44 46 46 44 42 41 41 43 43 42 42 44 45 46 47 48 48 47 47 46 46 46 45 45 45 45 45
39 39 38 38 39 40 41 42 44 46 46 47 47 47 47 48 47 46 45 46 47 47 48 48 47 48 48 48 47 47 48 48 49 49 49 48 47 48 48 47 45 44 45 47 48 46 45 45 45 46 47 47 47 47 47 46 46 47 47 47 47 47 47
40 40 40 41 42 43 44 45 47 48 49 50 51 52 52 51 50 49 48 46 46 46 46 46 46 47 47 48 49 50 51 51 51 51 51 50 50 50 50 50 50 49 50 51 51 49 48 47 47 48 49 48 48 48 48 48 48 48 48 48 48 48 48
43 43 44 45 46 47 49 49 50 51 52 53 54 54 54 53 53 52 50 49 48 47 46 47 47 47 47 47 48 49 49 50 50 50 50 50 50 50 50 51 51 51 52 53 53 52 51 50 50 50 50 50 50 50 50 50 50 50 50 49 48 48 48
49 49 50 50 51 51 52 52 52 53 53 54 54 54 54 53 53 52 52 51 50 49 48 48 48 48 48 47 47 48 48 49 49 50 50 50 50 50 49 50 50 50 51 52 52 52 52 51 51 52 51 51 51 51 51 50 50 50 49 49 49 49 49
53 53 53 53 53 53 52 53 53 54 55 55 55 54 53 53 53 53 53 52 52 52 51 51 50 50 49 49 49 50 50 50 51 51 51 52 52 51 51 51 50 50 50 50 50 51 51 51 52 52 51 51 50 50 49 49 49 49 48 48 48 49 50
54 53 52 52 52 52 52 53 54 55 56 56 56 55 53 53 53 54 54 54 54 54 53 53 53 52 52 52 52 51 51 50 50 50 50 50 51 51 51 51 51 51 50 49 49 50 51 51 51 51 50 50 49 49 49 49 49 49 48 48 49 50 51
57 55 53 53 53 54 54 54 54 55 56 56 56 55 54 53 53 54 55 54 54 54 53 53 53 52 52 51 50 49 48 47 47 47 47 47 47 48 49 49 49 49 49 49 49 50 51 51 51 50 50 49 49 50 50 50 50 50 50 50 51 52 53
62 61 59 58 58 58 57 56 55 54 54 54 54 54 54 53 53 53 54 54 53 52 51 50 50 49 48 48 47 46 45 45 44 44 44 45 45 46 47 47 47 48 49 49 50 50 50 50 50 50 50 50 51 51 51 50 50 51 51 52 53 54 55
65 65 64 64 62 61 60 59 58 56 53 51 51 52 52 52 51 51 52 52 52 50 49 49 48 48 47 46 45 45 44 44 43 43 43 43 44 44 45 46 47 48 48 49 49 49 49 49 50 50 50 50 51 50 50 50 50 51 52 53 54 54 55
66 68 68 68 67 65 63 61 60 57 54 52 50 49 48 48 49 49 50 51 51 50 49 49 48 48 47 46 45 44 44 43 43 42 42 42 43 44 45 46 46 47 47 48 48 48 48 49 49 50 50 49 49 49 49 49 50 51 51 52 52 53 53
Wind_Direction
303 299 297 294 292 289 283 274 264 261 262 261 261 261 262 263 264 267 270 271 273 274 275 275 274 271 269 265 263 261 261 260 258 258 258 258 256 253 252 251 252 253 253 253 256 258 258 258 258 256 253 248 243 241 240 242 247 249 246 245 248 250 249
304 306 308 305 301 297 290 281 269 262 262 261 261 261 261 263 263 265 267 269 270 272 273 274 273 271 269 267 265 261 259 257 256 255 255 255 255 254 252 252 253 255 256 255 255 257 257 257 257 254 251 247 243 242 242 244 248 246 243 243 247 249 249
306 308 308 306 302 298 291 283 272 264 264 264 262 264 265 266 267 267 268 270 271 272 273 275 275 274 271 269 266 264 261 258 255 253 253 255 256 255 255 254 254 255 256 254 254 257 258 257 257 256 254 251 248 247 245 244 243 241 242 244 247 250 250
303 304 303 299 296 292 286 281 273 264 262 264 264 266 270 273 275 276 276 277 278 278 278 278 278 277 274 270 267 265 263 261 257 254 253 255 256 257 257 258 257 256 256 255 255 257 258 258 257 258 257 255 253 251 249 247 244 244 246 245 247 249 250
298 300 299 291 287 286 284 281 276 267 260 264 268 272 278 282 284 286 285 285 284 284 283 281 279 276 273 270 267 265 263 262 260 258 257 257 258 260 261 261 261 260 259 258 258 258 259 257 256 256 257 256 254 253 251 250 248 247 248 250 252 252 249
293 300 297 287 282 282 283 282 277 270 263 264 273 280 288 292 293 294 293 291 288 287 285 281 277 272 269 267 265 264 262 261 261 260 260 259 260 261 262 263 263 263 263 262 261 261 261 259 258 258 258 257 254 252 250 249 249 249 250 253 255 253 251
289 300 300 292 284 279 277 277 274 269 264 267 278 289 297 300 300 297 293 289 286 283 281 277 273 268 266 266 266 267 267 265 263 262 261 259 259 259 259 260 260 259 261 263 263 263 262 260 260 261 261 259 256 254 252 250 248 248 249 251 251 251 250
288 299 304 301 289 282 277 274 272 268 263 267 282 294 300 302 300 295 287 280 275 273 271 270 269 267 265 265 266 269 270 269 267 265 262 260 258 257 256 256 255 255 257 260 262 262 263 263 263 264 262 259 256 254 254 253 251 249 248 248 247 247 246
286 292 299 300 290 283 279 275 273 270 263 260 268 281 290 296 299 296 288 279 270 265 262 260 262 265 267 268 268 270 270 270 270 268 265 262 259 257 254 252 251 250 251 255 258 259 260 262 263 265 263 259 256 254 253 253 254 253 251 249 248 247 245
276 275 280 286 284 279 277 274 271 269 267 264 263 269 280 292 300 299 293 287 282 277 272 266 262 260 260 262 265 268 269 269 270 271 271 269 266 262 260 257 254 252 250 250 251 251 251 252 254 255 254 255 254 253 252 252 253 256 256 256 256 252 249
267 266 266 272 280 279 275 272 268 267 269 270 269 272 280 291 298 296 291 288 289 288 284 280 275 270 265 261 260 261 264 267 269 271 272 273 273 272 271 269 266 263 260 257 255 254 253 251 251 251 251 251 251 251 251 250 249 249 253 258 262 260 256
264 268 265 268 278 280 275 271 271 271 271 272 274 274 276 284 288 286 281 280 282 284 284 284 284 282 279 274 269 264 262 263 265 267 270 270 270 272 274 275 273 271 268 265 263 262 262 260 257 255 255 254 254 254 255 255 255 252 248 250 254 257 258
264 271 271 271 275 275 270 269 273 276 275 276 277 275 274 276 276 274 272 272 274 275 276 280 283 285 286 285 282 277 270 265 263 262 263 264 265 266 268 270 271 272 270 267 265 263 263 262 260 258 258 257 258 259 260 261 262 262 259 256 254 254 254
273 278 277 270 267 265 264 266 269 273 276 276 278 279 277 275 272 269 269 272 274 273 273 277 279 280 282 285 285 283 280 277 273 267 262 260 260 261 263 265 268 271 272 271 269 264 260 259 258 256 256 257 258 260 262 264 264 265 265 264 263 262 262
278 281 279 269 263 259 259 262 262 264 268 273 277 279 278 276 275 273 272 271 274 280 284 286 286 284 281 281 281 280 279 279 277 273 268 263 260 260 260 262 264 267 270 272 272 271 268 266 264 263 261 261 260 260 262 265 266 267 266 265 266 267 267
276 278 278 274 270 263 260 260 258 256 259 265 272 277 278 279 278 276 274 272 272 279 287 292 294 291 285 282 279 275 274 274 274 272 268 265 262 258 256 256 257 257 260 264 269 272 275 278 279 280 279 279 278 277 276 275 275 275 275 273 271 271 270
276 276 277 275 271 268 265 263 262 258 256 259 264 270 274 277 278 279 279 278 277 280 285 290 291 287 284 284 280 273 269 269 270 270 268 267 264 260 255 254 254 253 253 256 261 266 270 275 279 281 282 284 285 286 286 285 284 283 283 282 280 278 277
277 275 275 272 268 267 264 262 264 263 260 261 263 265 268 270 272 274 276 279 281 282 284 287 288 286 287 287 283 276 273 271 269 266 265 266 267 265 262 259 257 256 254 254 256 260 265 269 272 275 277 279 282 283 284 285 285 285 285 285 284 283 282
274 271 271 270 268 267 262 257 258 262 263 264 263 264 268 269 267 267 269 274 276 278 280 281 281 282 284 286 285 280 276 276 274 267 263 264 264 265 265 264 261 258 257 256 257 260 265 268 270 274 279 283 286 286 285 284 285 285 285 285 285 285 284
270 268 269 268 266 264 257 252 255 262 266 266 264 265 269 269 267 266 268 271 271 270 273 276 276 277 278 283 286 281 277 278 277 273 270 269 265 263 263 264 263 261 260 261 262 265 268 269 269 273 279 284 286 286 285 284 283 283 284 284 286 286 286
267 265 265 265 268 267 259 255 258 263 265 267 266 267 269 267 267 270 271 271 270 270 272 274 274 274 276 279 280 277 279 284 282 279 279 277 271 266 263 263 263 263 263 264 265 265 266 265 266 270 275 278 280 281 282 282 281 281 282 283 285 287 287
267 266 262 259 260 261 258 257 258 257 256 258 263 269 272 271 270 273 272 271 272 274 275 275 275 275 276 277 275 274 278 282 282 283 284 283 281 276 270 267 266 266 267 266 266 265 264 263 264 267 271 272 273 276 279 280 280 280 281 281 283 285 286
264 263 259 254 248 248 254 260 261 256 252 257 266 271 274 273 273 274 273 272 274 275 276 277 277 278 278 279 278 278 280 281 281 282 283 284 285 283 279 274 272 271 271 268 266 265 264 265 265 267 267 267 269 274 278 280 281 281 281 281 281 282 282
263 258 260 260 257 256 261 266 267 262 260 265 271 272 272 273 274 274 274 274 273 274 275 276 278 281 282 281 280 280 282 283 283 283 284 284 284 284 283 280 275 273 273 271 269 268 267 267 266 267 267 267 271 276 279 281 282 282 282 281 280 280 280
266 264 266 266 264 263 265 267 268 268 268 271 273 273 273 274 274 274 274 274 275 275 276 276 277 279 280 279 279 279 281 283 283 283 283 283 284 284 283 281 277 275 274 273 272 270 269 268 268 268 270 272 276 278 280 282 282 282 281 280 279 278 278
267 270 270 267 263 263 265 267 269 271 271 272 273 274 275 276 276 275 274 274 274 275 275 275 276 277 277 278 278 279 279 280 280 280 280 280 281 281 279 278 277 277 275 273 272 271 269 269 271 272 272 274 276 278 279 280 280 280 280 279 277 276 276
267 269 270 269 266 265 267 269 271 272 273 273 274 275 276 277 276 276 274 273 273 273 273 273 273 274 275 276 276 276 277 277 278 277 277 278 278 278 278 277 275 275 274 273 273 273 272 273 273 273 274 275 276 277 277 277 278 278 279 278 277 275 274
266 266 267 268 268 268 269 271 272 273 273 273 274 275 276 276 274 273 272 272 271 272 272 271 271 270 271 271 272 273 274 276 276 276 276 277 276 276 277 276 276 276 275 274 275 275 275 275 274 274 275 276 276 276 276 276 277 278 279 278 278 276 274
264 264 264 266 267 266 267 270 272 273 273 273 274 275 275 275 274 272 271 270 270 271 271 271 270 270 270 270 271 272 273 275 276 276 276 276 276 275 274 274 276 276 276 276 276 276 275 274 273 274 275 275 275 276 276 276 278 279 278 277 277 276 274
262 262 263 264 265 265 265 268 271 272 273 274 273 274 274 275 274 274 274 273 272 271 271 271 272 271 271 272 272 272 273 274 275 275 276 276 276 275 275 274 275 275 274 275 276 275 274 274 273 273 273 273 274 275 275 276 277 276 275 274 274 273 272
263 264 264 264 264 264 264 267 271 273 275 274 273 272 272 273 274 274 274 274 274 273 272 272 272 272 273 273 273 273 274 274 274 275 275 275 275 275 275 274 274 273 273 273 273 273 273 272 271 271 271 272 273 273 274 274 272 271 270 270 270 270 270
263 265 266 265 264 263 264 268 273 276 276 275 273 271 271 271 272 272 273 273 273 273 272 272 272 272 272 273 273 274 274 275 275 275 275 275 276 275 275 274 274 273 272 272 271 271 271 271 270 271 271 272 272 272 271 270 268 267 267 267 268 268 269
261 264 265 264 262 261 265 271 275 277 277 276 273 270 269 269 269 270 270 271 271 271 271 272 272 272 272 273 273 274 274 275 275 275 275 275 275 275 274 274 274 273 272 271 270 269 269 270 271 271 272 272 271 270 269 268 268 268 268 267 268 268 268
262 263 263 261 260 261 267 274 277 278 278 276 272 269 267 267 267 268 269 269 269 270 270 271 271 272 272 273 273 274 275 276 276 276 276 275 274 273 272 272 271 271 270 269 268 268 269 270 270 271 271 271 270 269 269 269 270 270 270 270 270 269 269
265 265 264 262 262 264 269 274 277 277 275 273 271 268 266 265 267 268 269 269 269 269 269 270 270 270 271 272 273 275 276 277 277 277 276 276 275 273 272 270 269 268 268 267 267 268 269 269 270 270 270 270 269 270 270 271 271 271 271 271 271 271 271
263 265 265 265 265 267 270 274 275 274 271 269 268 267 266 266 267 268 269 269 269 269 269 269 269 269 270 271 273 275 276 277 276 276 276 276 275 274 272 271 270 269 269 269 269 269 269 269 269 270 270 270 270 270 271 271 271 271 271 271 271 272 272
261 264 266 268 269 271 273 274 274 272 269 267 266 265 264 264 265 266 267 267 268 268 268 269 270 271 271 272 273 274 275 275 275 275 275 275 275 274 273 272 271 271 271 271 271 271 270 270 270 270 270 270 271 271 271 270 270 270 271 271 272 272 273
Height
5761 5760 5760 5760 5759 5760 5760 5760 5760 5760 5760 5760 5760 5760 5761 5761 5761 5761 5761 5761 5761 5762 5762 5762 5763 5763 5763 5763 5764 5764 5764 5764 5763 5763 5764 5763 5763 5764 5765 5765 5765 5765 5765 5765 5765 5765 5765 5764 5764 5765 5765 5766 5767 5768 5768 5768 5769 5769 5769 5769 5769 5770 5771
5758 5758 5757 5757 5757 5757 5758 5758 5758 5758 5758 5758 5758 5758 5758 5759 5759 5759 5759 5759 5759 5759 5760 5760 5760 5760 5760 5760 5760 5761 5761 5761 5761 5761 5761 5761 5761 5761 5761 5762 5762 5762 5762 5763 5762 5762 5762 5761 5761 5762 5762 5762 5763 5764 5765 5765 5765 5765 5766 5767 5767 5768 5768
5755 5755 5755 5755 5755 5755 5756 5756 5756 5756 5756 5756 5756 5756 5756 5756 5757 5757 5757 5757 5757 5757 5757 5757 5757 5757 5757 5757 5758 5758 5758 5758 5758 5758 5758 5758 5758 5758 5759 5759 5759 5759 5760 5760 5760 5759 5759 5759 5759 5759 5759 5760 5761 5761 5762 5762 5762 5763 5764 5765 5765 5766 5766
5754 5753 5753 5754 5754 5754 5754 5754 5754 5754 5754 5754 5754 5754 5754 5754 5754 5755 5755 5755 5755 5755 5755 5755 5755 5755 5755 5755 5755 5755 5755 5755 5756 5756 5756 5755 5755 5756 5756 5756 5756 5757 5757 5757 5757 5756 5756 5756 5757 5757 5757 5757 5758 5759 5759 5759 5760 5761 5762 5762 5763 5763 5763
5752 5752 5752 5752 5752 5752 5752 5752 5752 5751 5751 5752 5752 5752 5752 5752 5752 5752 5753 5753 5753 5753 5753 5753 5753 5753 5753 5753 5753 5753 5753 5753 5753 5753 5753 5753 5753 5753 5753 5754 5754 5754 5754 5754 5754 5754 5754 5754 5754 5754 5754 5754 5755 5756 5756 5756 5757 5758 5759 5759 5760 5760 5760
5751 5750 5750 5750 5750 5749 5749 5750 5750 5749 5749 5750 5750 5750 5750 5750 5750 5751 5751 5751 5751 5751 5751 5751 5751 5751 5752 5752 5752 5751 5751 5751 5751 5751 5751 5751 5751 5751 5752 5752 5752 5752 5752 5752 5752 5752 5751 5751 5751 5751 5751 5752 5752 5752 5753 5754 5755 5755 5756 5756 5757 5757 5757
5749 5749 5749 5748 5747 5747 5747 5748 5748 5748 5748 5748 5748 5748 5749 5749 5749 5749 5749 5749 5749 5749 5749 5749 5749 5750 5750 5750 5750 5750 5750 5750 5750 5750 5749 5749 5749 5749 5749 5749 5750 5750 5750 5750 5750 5750 5749 5749 5749 5749 5749 5749 5749 5750 5750 5751 5752 5752 5752 5753 5753 5753 5754
5748 5747 5747 5746 5746 5745 5746 5747 5747 5747 5746 5746 5746 5747 5747 5747 5748 5748 5748 5748 5748 5748 5748 5748 5748 5748 5748 5748 5748 5748 5748 5748 5748 5748 5748 5748 5747 5747 5747 5747 5747 5747 5748 5748 5748 5748 5747 5747 5747 5747 5747 5747 5747 5748 5748 5748 5749 5749 5749 5750 5750 5750 5751
5746 5746 5745 5745 5744 5744 5744 5745 5746 5745 5745 5745 5745 5745 5745 5746 5746 5746 5746 5746 5746 5746 5746 5746 5746 5746 5746 5747 5747 5747 5747 5747 5747 5747 5747 5746 5746 5746 5746 5746 5746 5746 5746 5746 5746 5746 5746 5746 5746 5746 5746 5746 5746 5746 5746 5746 5747 5747 5747 5747 5747 5748 5748
5743 5744 5743 5743 5743 5742 5742 5743 5744 5744 5744 5744 5743 5743 5744 5744 5745 5745 5745 5745 5745 5745 5745 5745 5745 5745 5745 5745 5745 5745 5745 5745 5745 5745 5745 5745 5745 5745 5745 5744 5744 5744 5744 5744 5744 5744 5744 5744 5744 5744 5744 5744 5744 5744 5745 5745 5745 5745 5745 5745 5745 5746 5746
5740 5741 5741 5741 5741 5740 5740 5740 5741 5742 5742 5742 5742 5742 5742 5743 5743 5743 5743 5743 5743 5743 5743 5743 5744 5744 5743 5743 5743 5743 5743 5743 5744 5744 5744 5744 5744 5743 5743 5743 5743 5743 5742 5742 5742 5742 5742 5743 5743 5743 5743 5743 5743 5743 5743 5743 5743 5744 5744 5744 5744 5744 5744
5737 5739 5739 5740 5739 5739 5738 5738 5739 5740 5740 5740 5740 5740 5740 5741 5741 5741 5741 5741 5741 5741 5741 5741 5742 5742 5742 5742 5742 5742 5742 5742 5742 5742 5742 5742 5742 5742 5742 5742 5742 5742 5741 5741 5741 5741 5741 5741 5741 5741 5742 5742 5742 5741 5741 5741 5741 5742 5742 5742 5743 5743 5743
5735 5736 5737 5738 5738 5737 5737 5737 5737 5738 5738 5738 5738 5738 5738 5738 5738 5738 5738 5738 5738 5738 5739 5739 5739 5740 5740 5741 5741 5741 5741 5741 5741 5741 5740 5740 5740 5740 5740 5740 5740 5740 5740 5740 5740 5740 5740 5740 5740 5740 5740 5740 5740 5740 5740 5740 5740 5740 5740 5741 5741 5741 5741
5733 5734 5735 5735 5735 5735 5735 5735 5736 5736 5736 5736 5736 5736 5736 5736 5736 5736 5736 5736 5736 5736 5736 5736 5737 5737 5738 5739 5739 5739 5740 5740 5740 5739 5739 5739 5738 5738 5738 5738 5738 5738 5738 5738 5738 5738 5738 5738 5738 5738 5738 5738 5738 5738 5738 5738 5738 5738 5739 5739 5739 5739 5739
5729 5729 5730 5731 5732 5733 5733 5734 5734 5734 5734 5733 5733 5734 5734 5734 5735 5735 5735 5735 5735 5735 5735 5735 5735 5735 5735 5736 5737 5737 5738 5738 5738 5738 5737 5737 5737 5737 5737 5737 5737 5737 5736 5736 5737 5737 5737 5736 5736 5736 5736 5737 5737 5737 5737 5736 5736 5736 5736 5736 5737 5737 5737
5724 5725 5726 5727 5727 5729 5730 5731 5731 5732 5732 5731 5731 5731 5731 5732 5732 5733 5733 5733 5733 5733 5734 5734 5734 5734 5734 5734 5735 5735 5736 5736 5736 5736 5736 5736 5736 5735 5735 5735 5735 5735 5735 5735 5735 5735 5735 5735 5734 5734 5734 5734 5734 5734 5735 5734 5734 5733 5733 5733 5734 5734 5734
5721 5721 5722 5723 5723 5725 5726 5727 5728 5728 5729 5729 5729 5729 5729 5729 5729 5730 5730 5730 5730 5731 5731 5731 5731 5731 5732 5733 5733 5733 5733 5734 5734 5734 5734 5734 5734 5734 5734 5733 5733 5733 5733 5733 5733 5733 5733 5733 5733 5732 5732 5732 5732 5732 5732 5732 5732 5732 5731 5730 5730 5730 5731
5717 5718 5719 5720 5720 5720 5721 5722 5723 5724 5725 5726 5726 5727 5727 5726 5726 5726 5727 5727 5727 5727 5727 5728 5728 5728 5728 5729 5730 5731 5731 5731 5731 5731 5731 5731 5731 5731 5731 5731 5731 5730 5730 5730 5730 5730 5730 5730 5730 5730 5730 5730 5730 5730 5730 5730 5729 5729 5729 5728 5727 5727 5727
5713 5714 5715 5716 5716 5716 5717 5719 5719 5720 5721 5722 5722 5723 5723 5723 5723 5723 5723 5724 5724 5724 5724 5724 5725 5726 5725 5725 5726 5726 5727 5727 5727 5728 5728 5729 5729 5728 5728 5728 5728 5727 5727 5727 5727 5727 5727 5727 5727 5727 5727 5727 5726 5726 5726 5726 5726 5726 5725 5725 5725 5724 5723
5709 5710 5711 5712 5713 5713 5714 5716 5716 5716 5717 5718 5718 5718 5718 5718 5718 5718 5720 5721 5721 5721 5721 5721 5722 5723 5723 5723 5722 5722 5723 5723 5724 5724 5725 5725 5726 5726 5725 5725 5725 5724 5724 5724 5724 5724 5724 5724 5724 5724 5724 5724 5723 5723 5722 5722 5722 5722 5722 5722 5721 5721 5720
5705 5706 5707 5708 5709 5710 5711 5712 5712 5713 5714 5713 5713 5712 5712 5712 5712 5714 5715 5716 5717 5717 5717 5717 5717 5717 5718 5719 5719 5719 5719 5720 5720 5720 5720 5721 5722 5722 5722 5722 5722 5721 5721 5721 5721 5721 5720 5720 5720 5721 5721 5720 5720 5719 5719 5719 5719 5718 5718 5718 5717 5717 5716
5702 5703 5704 5704 5705 5705 5706 5706 5706 5707 5708 5707 5706 5706 5707 5707 5708 5709 5710 5711 5712 5712 5711 5711 5711 5712 5713 5714 5715 5715 5715 5716 5716 5716 5716 5717 5718 5718 5718 5718 5718 5718 5718 5717 5717 5716 5716 5716 5716 5716 5716 5716 5716 5715 5715 5715 5715 5715 5714 5714 5713 5713 5713
5698 5699 5699 5699 5700 5699 5699 5700 5701 5702 5702 5701 5701 5701 5702 5703 5704 5704 5705 5705 5706 5706 5705 5705 5705 5706 5707 5708 5709 5710 5710 5710 5711 5711 5711 5712 5713 5713 5713 5713 5713 5713 5713 5712 5712 5712 5712 5712 5711 5711 5711 5711 5711 5710 5710 5710 5710 5710 5710 5709 5709 5709 5708
5693 5694 5693 5693 5694 5694 5694 5695 5696 5697 5698 5697 5697 5697 5698 5699 5700 5700 5700 5701 5701 5700 5700 5700 5700 5701 5701 5702 5703 5703 5704 5704 5705 5706 5706 5707 5707 5707 5707 5707 5707 5707 5707 5707 5706 5706 5707 5706 5706 5706 5705 5705 5705 5705 5704 5704 5704 5704 5704 5704 5703 5703 5703
5687 5688 5688 5689 5689 5689 5689 5690 5691 5692 5693 5693 5692 5693 5693 5694 5695 5695 5695 5696 5696 5696 5696 5696 5696 5697 5697 5697 5697 5697 5698 5699 5699 5700 5700 5701 5701 5701 5701 5701 5701 5702 5702 5700 5700 5701 5701 5701 5700 5700 5700 5700 5699 5698 5698 5698 5697 5697 5698 5698 5697 5696 5696
5683 5683 5683 5684 5684 5684 5685 5685 5685 5686 5687 5687 5687 5687 5688 5688 5689 5690 5690 5690 5691 5691 5692 5692 5692 5692 5692 5692 5691 5692 5692 5693 5693 5694 5694 5695 5695 5695 5695 5696 5696 5696 5696 5694 5693 5695 5696 5695 5694 5694 5694 5693 5692 5692 5691 5691 5690 5690 5690 5690 5690 5689 5688
5677 5677 5677 5678 5678 5679 5679 5679 5679 5680 5680 5680 5681 5682 5682 5683 5684 5685 5685 5685 5685 5685 5686 5686 5686 5686 5686 5686 5686 5686 5686 5687 5687 5688 5688 5689 5690 5689 5689 5689 5689 5690 5689 5687 5688 5689 5689 5688 5688 5687 5687 5686 5685 5685 5685 5684 5683 5683 5683 5683 5682 5682 5681
5673 5673 5673 5673 5673 5673 5673 5674 5674 5674 5674 5675 5676 5677 5678 5678 5679 5680 5680 5680 5679 5679 5680 5680 5680 5681 5680 5680 5680 5680 5680 5680 5681 5681 5682 5683 5683 5683 5682 5682 5682 5683 5682 5681 5681 5682 5682 5681 5681 5680 5679 5679 5679 5678 5677 5677 5676 5676 5676 5675 5674 5673 5673
5668 5668 5668 5668 5668 5668 5668 5668 5668 5669 5669 5670 5670 5671 5671 5672 5672 5673 5673 5674 5674 5673 5673 5673 5673 5674 5674 5674 5674 5673 5673 5673 5673 5674 5674 5675 5675 5675 5676 5675 5675 5675 5675 5673 5673 5674 5674 5674 5674 5673 5672 5672 5671 5671 5670 5669 5669 5668 5668 5667 5666 5665 5664
5663 5663 5663 5663 5663 5663 5663 5663 5663 5663 5664 5664 5664 5664 5664 5664 5664 5665 5665 5666 5666 5666 5666 5666 5666 5666 5666 5666 5667 5667 5667 5667 5667 5667 5667 5667 5667 5667 5667 5667 5667 5667 5667 5666 5666 5666 5666 5666 5666 5665 5665 5664 5664 5663 5662 5662 5661 5660 5659 5658 5657 5657 5656
5656 5657 5657 5657 5657 5657 5657 5657 5658 5658 5658 5658 5658 5658 5658 5658 5658 5658 5658 5658 5658 5659 5659 5659 5659 5659 5659 5659 5659 5659 5659 5660 5660 5660 5660 5660 5660 5660 5659 5659 5659 5659 5659 5658 5658 5657 5657 5657 5657 5657 5657 5657 5656 5656 5655 5654 5653 5652 5651 5650 5649 5648 5647
5650 5650 5650 5650 5650 5650 5651 5651 5651 5651 5651 5651 5652 5652 5652 5651 5651 5651 5651 5651 5652 5652 5652 5652 5652 5652 5652 5652 5652 5652 5652 5652 5652 5652 5652 5652 5652 5652 5651 5651 5651 5650 5650 5650 5650 5649 5648 5648 5648 5648 5648 5648 5648 5647 5646 5646 5644 5643 5642 5642 5640 5640 5639
5643 5643 5643 5643 5643 5644 5644 5644 5644 5644 5643 5644 5645 5645 5645 5645 5644 5644 5644 5645 5645 5645 5645 5645 5645 5645 5645 5645 5645 5645 5645 5645 5645 5645 5645 5645 5644 5644 5643 5643 5643 5642 5642 5642 5642 5641 5640 5640 5639 5639 5639 5639 5638 5638 5637 5636 5635 5634 5634 5633 5632 5631 5631
5635 5636 5637 5637 5637 5638 5638 5639 5638 5638 5637 5637 5638 5638 5638 5638 5637 5637 5637 5638 5638 5639 5639 5639 5639 5638 5638 5638 5638 5638 5638 5638 5638 5638 5638 5637 5637 5637 5636 5636 5636 5635 5634 5634 5633 5633 5633 5632 5631 5631 5631 5630 5630 5628 5628 5627 5626 5625 5625 5624 5623 5623 5622
5625 5627 5629 5630 5631 5631 5632 5633 5633 5632 5632 5632 5632 5631 5631 5631 5631 5630 5630 5630 5631 5632 5632 5632 5632 5632 5631 5631 5631 5631 5631 5631 5631 5631 5631 5630 5630 5630 5629 5629 5629 5628 5627 5627 5627 5626 5626 5625 5624 5624 5623 5622 5621 5620 5620 5619 5618 5617 5616 5615 5614 5613 5612
5615 5617 5619 5621 5622 5623 5624 5625 5626 5626 5626 5627 5627 5626 5625 5625 5624 5624 5623 5623 5624 5624 5625 5625 5625 5625 5625 5625 5626 5626 5625 5625 5624 5624 5624 5624 5623 5623 5622 5622 5621 5621 5620 5620 5620 5620 5619 5618 5617 5616 5615 5614 5613 5613 5612 5611 5610 5608 5607 5606 5606 5605 5603
5607 5608 5609 5612 5614 5615 5616 5616 5616 5617 5619 5620 5621 5621 5621 5620 5619 5618 5617 5617 5617 5618 5618 5618 5618 5619 5619 5619 5620 5620 5619 5618 5618 5618 5618 5617 5617 5616 5616 5615 5615 5615 5614 5614 5613 5612 5611 5610 5609 5609 5608 5607 5606 5604 5603 5602 5601 5600 5599 5598 5597 5596 5595